EXPRESS-AM8

Last updated on Tue Sep 22 2026 00:03:13 GMT+0000 (Coordinated Universal Time)

1 40895U 15048A 26264.62886465 -.00000115 00000+0 00000+0 0 9995 2 40895 0.0189 214.5366 0000346 235.8381 122.5364 1.00271936 40316
UTC large
Height (km)
Speed (km/s)
/
Latitude / Longitude
Inclination (degrees)
Orbital Period (minutes)
Azimuth
Elevation
Range (km)
Doppler Factor

Next 0 passes for location: London (51.5072 / 0.1276)

No passes found over London.
EXPRESS-AM8